West Bend, WI

3:42 PM CST on November 17, 2017 (GMT -0600)
West Bend Municipal

Weather History for KETB - September, 2013

Change the Weather History Date:

Saturday, September 7, 2013

  Actual Average Record
Temperature  
Mean Temperature 74 °F -  
Max Temperature 82 °F 77 °F 95 °F (1939)
Min Temperature 64 °F 54 °F 38 °F (1986)
Cooling Degree Days 9    
Growing Degree Days 24 (Base 50)    
Moisture  
Dew Point 63 °F    
Average Humidity 73    
Maximum Humidity 88    
Minimum Humidity 48    
Precipitation  
Precipitation 0.76 in - - ()
Sea Level Pressure  
Sea Level Pressure 29.95 in    
Wind  
Wind Speed 5 mph (SW)    
Max Wind Speed 20 mph    
Max Gust Speed 26 mph    
Visibility 9 miles    
Events Rain    
Averages and records for this station are not official NWS values.
T = Trace of Precipitation, MM = Missing Value Source: NWS Daily Summary

Daily Weather History Graph

Daily Weather History Graph

Search for Another Location

Airport or City:

Trip Planner

Search our weather history database for the weather conditions in past years. The results will help you decide how hot, cold, wet, or windy it might be!

Date:

Astronomy

Sep. 07, 2013 Rise Set
Actual Time 6:23 AM CDT 7:16 PM CDT
Civil Twilight 5:54 AM CDT 7:45 PM CDT
Nautical Twilight 5:19 AM CDT 8:20 PM CDT
Astronomical Twilight 4:43 AM CDT 8:56 PM CDT
Moon 8:43 AM CDT (9/7) 8:08 PM CDT (9/7)
Length of Visible Light 13h 51m
Length of Day
12h 53m
Waxing Crescent, 5% of the Moon is Illuminated
Sep 7
Waxing Crescent
Sep 12
First Quarter
Sep 19
Full
Sep 26
Last Quarter
Oct 4
New

Hourly Weather History & Observations

Time (CDT) Temp. Heat Index Dew Point Humidity Pressure Visibility Wind Dir Wind Speed Gust Speed Precip Events Conditions
12:15 AM 68.0 °F - 60.8 °F 78% 29.99 in 10.0 mi Calm Calm - N/A   Clear
12:35 AM 66.2 °F - 62.6 °F 88% 29.99 in 10.0 mi South 3.5 mph - N/A   Clear
12:55 AM 68.0 °F - 60.8 °F 78% 29.99 in 10.0 mi SSW 4.6 mph - N/A   Scattered Clouds
1:15 AM 68.0 °F - 60.8 °F 78% 29.98 in 10.0 mi South 5.8 mph - N/A   Scattered Clouds
1:35 AM 68.0 °F - 60.8 °F 78% 29.98 in 10.0 mi SSW 3.5 mph - N/A   Scattered Clouds
1:55 AM 68.0 °F - 60.8 °F 78% 29.98 in 10.0 mi SSW 4.6 mph - N/A   Scattered Clouds
2:15 AM 68.0 °F - 60.8 °F 78% 29.99 in 10.0 mi SW 3.5 mph - N/A   Scattered Clouds
2:35 AM 69.8 °F - 60.8 °F 73% 29.98 in 10.0 mi WSW 5.8 mph - N/A   Scattered Clouds
2:55 AM 69.8 °F - 60.8 °F 73% 29.98 in 10.0 mi SW 4.6 mph - N/A   Mostly Cloudy
3:15 AM 69.8 °F - 60.8 °F 73% 29.98 in 10.0 mi SW 5.8 mph - N/A   Overcast
3:35 AM 69.8 °F - 60.8 °F 73% 29.98 in 10.0 mi SSW 3.5 mph - N/A   Overcast
3:55 AM 69.8 °F - 60.8 °F 73% 29.98 in 10.0 mi SW 4.6 mph - N/A   Overcast
4:15 AM 69.8 °F - 60.8 °F 73% 29.97 in 10.0 mi SW 3.5 mph - N/A   Mostly Cloudy
4:35 AM 69.8 °F - 59.0 °F 68% 29.97 in 10.0 mi Calm Calm - N/A   Clear
4:55 AM 69.8 °F - 59.0 °F 68% 29.97 in 10.0 mi SSW 4.6 mph - N/A   Scattered Clouds
5:15 AM 68.0 °F - 59.0 °F 73% 29.96 in 10.0 mi SSW 3.5 mph - N/A   Mostly Cloudy
5:35 AM 68.0 °F - 59.0 °F 73% 29.96 in 10.0 mi SSW 4.6 mph - N/A   Scattered Clouds
5:55 AM 68.0 °F - 59.0 °F 73% 29.95 in 10.0 mi SSW 4.6 mph - N/A   Scattered Clouds
6:15 AM 68.0 °F - 59.0 °F 73% 29.96 in 10.0 mi SW 4.6 mph - N/A   Clear
6:35 AM 68.0 °F - 59.0 °F 73% 29.96 in 10.0 mi SW 4.6 mph - N/A   Scattered Clouds
6:55 AM 69.8 °F - 59.0 °F 68% 29.96 in 10.0 mi SSW 4.6 mph - N/A   Mostly Cloudy
7:35 AM 69.8 °F - 59.0 °F 68% 29.95 in 10.0 mi SW 5.8 mph - N/A   Clear
7:55 AM 69.8 °F - 59.0 °F 68% 29.95 in 10.0 mi SW 6.9 mph - N/A   Clear
8:15 AM 71.6 °F - 59.0 °F 64% 29.95 in 10.0 mi SW 6.9 mph - N/A   Clear
8:35 AM 71.6 °F - 59.0 °F 64% 29.94 in 10.0 mi SW 6.9 mph - N/A   Scattered Clouds
8:55 AM 71.6 °F - 59.0 °F 64% 29.94 in 10.0 mi SSW 6.9 mph - N/A   Mostly Cloudy
9:15 AM 73.4 °F - 60.8 °F 65% 29.94 in 10.0 mi SW 6.9 mph - N/A   Scattered Clouds
9:35 AM 77.0 °F - 60.8 °F 57% 29.93 in 10.0 mi SW 5.8 mph - N/A   Clear
9:55 AM 78.8 °F - 60.8 °F 54% 29.93 in 10.0 mi SW 8.1 mph - N/A   Scattered Clouds
10:15 AM 78.8 °F - 60.8 °F 54% 29.93 in 10.0 mi West 10.4 mph - N/A   Scattered Clouds
10:35 AM 80.6 °F 81.1 °F 59.0 °F 48% 29.93 in 10.0 mi West 12.7 mph - N/A   Mostly Cloudy
10:55 AM 77.0 °F - 60.8 °F 57% 29.92 in 10.0 mi WSW 8.1 mph - N/A   Overcast
11:15 AM 75.2 °F - 60.8 °F 61% 29.92 in 10.0 mi SW 4.6 mph - N/A   Mostly Cloudy
11:35 AM 73.4 °F - 60.8 °F 65% 29.95 in 10.0 mi NNW 11.5 mph 18.4 mph N/A Rain Light Rain
11:55 AM 69.8 °F - 62.6 °F 78% 29.95 in 2.0 mi WSW 10.4 mph 17.3 mph 0.25 in Rain Heavy Rain
12:15 PM 68.0 °F - 64.4 °F 88% 29.94 in 7.0 mi SW 3.5 mph - 0.03 in Rain Light Rain
12:35 PM 68.0 °F - 64.4 °F 88% 29.92 in 7.0 mi WSW 4.6 mph - 0.03 in Rain Light Rain
12:55 PM 68.0 °F - 64.4 °F 88% 29.96 in 1.5 mi North 9.2 mph - 0.17 in Rain Heavy Rain
1:15 PM 68.0 °F - 64.4 °F 88% 29.94 in 0.8 mi South 10.4 mph - 0.32 in Rain Heavy Rain
1:35 PM 68.0 °F - 64.4 °F 88% 29.91 in 5.0 mi South 8.1 mph - 0.34 in Rain Light Rain
1:55 PM 69.8 °F - 66.2 °F 88% 29.91 in 7.0 mi SSW 6.9 mph - 0.34 in   Scattered Clouds
2:15 PM 73.4 °F - 68.0 °F 83% 29.90 in 10.0 mi SW 6.9 mph - N/A   Scattered Clouds
2:35 PM 77.0 °F - 66.2 °F 69% 29.90 in 10.0 mi SW 9.2 mph - N/A   Clear
2:55 PM 78.8 °F - 64.4 °F 61% 29.90 in 10.0 mi WSW 5.8 mph - N/A   Clear
3:15 PM 80.6 °F 82.3 °F 64.4 °F 58% 29.90 in 10.0 mi WSW 6.9 mph - N/A   Clear
3:35 PM 80.6 °F 82.3 °F 64.4 °F 58% 29.91 in 10.0 mi West 6.9 mph - N/A   Clear
3:55 PM 82.4 °F 83.9 °F 64.4 °F 54% 29.91 in 10.0 mi WSW 8.1 mph - N/A   Scattered Clouds
4:15 PM 80.6 °F 82.7 °F 66.2 °F 61% 29.91 in 10.0 mi Calm Calm - N/A   Scattered Clouds
4:35 PM 80.6 °F 82.7 °F 66.2 °F 61% 29.91 in 10.0 mi SSW 3.5 mph - N/A   Scattered Clouds
4:55 PM 80.6 °F 83.2 °F 68.0 °F 65% 29.91 in 10.0 mi SSW 3.5 mph - N/A   Mostly Cloudy
5:15 PM 78.8 °F - 68.0 °F 69% 29.91 in 10.0 mi SSE 5.8 mph - N/A   Mostly Cloudy
5:35 PM 78.8 °F - 68.0 °F 69% 29.91 in 10.0 mi Calm Calm - N/A   Scattered Clouds
5:55 PM 78.8 °F - 68.0 °F 69% 29.91 in 10.0 mi SSE 3.5 mph - N/A   Clear
6:15 PM 77.0 °F - 68.0 °F 74% 29.91 in 10.0 mi SE 3.5 mph - N/A   Clear
6:35 PM 77.0 °F - 68.0 °F 74% 29.91 in 10.0 mi Calm Calm - N/A   Clear
6:55 PM 77.0 °F - 68.0 °F 74% 29.92 in 10.0 mi Calm Calm - N/A   Clear
7:15 PM 75.2 °F - 68.0 °F 78% 29.91 in 10.0 mi WSW 4.6 mph - N/A   Clear
7:35 PM 73.4 °F - 68.0 °F 83% 29.92 in 10.0 mi NE 3.5 mph - N/A   Clear
7:55 PM 73.4 °F - 68.0 °F 83% 29.94 in 10.0 mi NE 3.5 mph - N/A   Scattered Clouds
8:15 PM 71.6 °F - 68.0 °F 88% 29.95 in 10.0 mi Calm Calm - N/A   Scattered Clouds
8:35 PM 71.6 °F - 68.0 °F 88% 29.95 in 10.0 mi NNW 3.5 mph - N/A   Clear
8:55 PM 71.6 °F - 68.0 °F 88% 29.96 in 10.0 mi NNE 4.6 mph - N/A   Scattered Clouds
9:15 PM 73.4 °F - 68.0 °F 83% 29.97 in 10.0 mi NNE 10.4 mph 16.1 mph N/A   Scattered Clouds
9:35 PM 73.4 °F - 64.4 °F 73% 29.97 in 10.0 mi NE 11.5 mph 16.1 mph N/A   Scattered Clouds
9:55 PM 71.6 °F - 64.4 °F 78% 29.98 in 10.0 mi NE 19.6 mph 26.5 mph N/A   Scattered Clouds
10:15 PM 68.0 °F - 62.6 °F 83% 30.00 in 10.0 mi NE 15.0 mph 23.0 mph N/A   Scattered Clouds
10:35 PM 68.0 °F - 60.8 °F 78% 30.02 in 10.0 mi NE 16.1 mph 20.7 mph N/A   Mostly Cloudy
10:55 PM 68.0 °F - 60.8 °F 78% 30.02 in 10.0 mi NE 13.8 mph 21.9 mph N/A   Overcast
11:15 PM 66.2 °F - 60.8 °F 83% 30.02 in 10.0 mi NNE 13.8 mph 23.0 mph N/A   Overcast
11:35 PM 66.2 °F - 60.8 °F 83% 30.03 in 10.0 mi NE 10.4 mph 21.9 mph N/A   Overcast
11:55 PM 64.4 °F - 60.8 °F 88% 30.03 in 10.0 mi NE 13.8 mph 19.6 mph N/A   Overcast